VSV769 UAAA-UATG

Flight info

Callsign VSV769
Flight time 2h 52m
Altitude 36000
Route TIPSA1A TIPSA L855 ORTEG L139 GOGDI GOGDI1U
Aircraft B738/M-SDE2E3FGHIRWXY/LB1

Departure

Time 2026-05-07 19:01
Airport Almaty International Airport (UAAA)

Arrival

Time 2026-05-07 21:54
Airport Atyrau International Airport (UATG)
Time Latitude Longitude Altitude Speed Heading
2026-05-07 18:56 43.34771 77.02545 2223 ft 13 kts 94°
2026-05-07 18:56 43.34774 77.02670 2225 ft 13 kts 87°
2026-05-07 18:56 43.34779 77.02791 2226 ft 13 kts 87°
2026-05-07 18:57 43.34783 77.02909 2227 ft 12 kts 87°
2026-05-07 18:57 43.34792 77.03023 2226 ft 12 kts 70°
2026-05-07 18:57 43.34831 77.03154 2223 ft 24 kts 64°
2026-05-07 18:57 43.34965 77.03441 2225 ft 47 kts 56°
2026-05-07 18:58 43.35188 77.03896 2227 ft 67 kts 56°
2026-05-07 18:58 43.35448 77.04419 2228 ft 63 kts 55°
2026-05-07 18:58 43.35685 77.04893 2228 ft 57 kts 56°
2026-05-07 18:58 43.35900 77.05327 2225 ft 52 kts 55°
2026-05-07 18:59 43.36061 77.05646 2232 ft 37 kts 53°
2026-05-07 18:59 43.36212 77.05918 2227 ft 34 kts 55°
2026-05-07 18:59 43.36330 77.06128 2229 ft 16 kts 26°
2026-05-07 18:59 43.36318 77.06190 2226 ft 14 kts 218°
2026-05-07 19:00 43.36271 77.06078 2230 ft 13 kts 235°
2026-05-07 19:00 43.36215 77.05962 2228 ft 27 kts 237°
2026-05-07 19:00 43.35961 77.05452 2229 ft 101 kts 236°
2026-05-07 19:00 43.35440 77.04395 2228 ft 163 kts 235°
2026-05-07 19:01 43.34744 77.02999 2725 ft 177 kts 234°
2026-05-07 19:01 43.34070 77.01496 3350 ft 200 kts 238°
2026-05-07 19:01 43.33275 76.99744 3585 ft 232 kts 237°
2026-05-07 19:01 43.32338 76.97783 4008 ft 255 kts 236°
2026-05-07 19:02 43.31363 76.95783 4788 ft 256 kts 238°
2026-05-07 19:02 43.30728 76.93435 5345 ft 266 kts 266°
2026-05-07 19:02 43.31047 76.90919 6003 ft 273 kts 294°
2026-05-07 19:02 43.32190 76.88826 6715 ft 279 kts 319°
2026-05-07 19:03 43.33864 76.87465 7415 ft 283 kts 335°
2026-05-07 19:03 43.35702 76.86472 8116 ft 286 kts 338°
2026-05-07 19:03 43.37590 76.85514 8844 ft 289 kts 338°
2026-05-07 19:03 43.39475 76.84528 9520 ft 292 kts 337°
2026-05-07 19:04 43.41377 76.83501 9923 ft 295 kts 336°
2026-05-07 19:04 43.43268 76.82467 9949 ft 293 kts 336°
2026-05-07 19:04 43.45100 76.81255 9957 ft 292 kts 320°
2026-05-07 19:04 43.46392 76.79142 10090 ft 292 kts 297°
2026-05-07 19:05 43.47258 76.76507 10247 ft 313 kts 290°
2026-05-07 19:05 43.48081 76.73628 10408 ft 334 kts 290°
2026-05-07 19:05 43.48932 76.70621 10744 ft 347 kts 290°
2026-05-07 19:05 43.49825 76.67510 11311 ft 351 kts 290°
2026-05-07 19:06 43.50734 76.64390 12024 ft 351 kts 291°
2026-05-07 19:06 43.52571 76.58142 13401 ft 354 kts 291°
2026-05-07 19:06 43.53496 76.54994 14031 ft 356 kts 291°
2026-05-07 19:07 43.54422 76.51822 14569 ft 359 kts 291°
2026-05-07 19:07 43.55359 76.48602 15090 ft 364 kts 291°
2026-05-07 19:07 43.56305 76.45352 15615 ft 367 kts 291°
2026-05-07 19:07 43.57260 76.42064 16158 ft 371 kts 291°
2026-05-07 19:08 43.58224 76.38745 16695 ft 374 kts 291°
2026-05-07 19:08 43.59193 76.35402 17222 ft 378 kts 291°
2026-05-07 19:08 43.60066 76.31970 17727 ft 381 kts 281°
2026-05-07 19:08 43.60299 76.28332 18245 ft 383 kts 272°
2026-05-07 19:09 43.60433 76.24650 18711 ft 386 kts 273°
2026-05-07 19:09 43.60584 76.20939 19186 ft 388 kts 273°
2026-05-07 19:09 43.60746 76.17212 19677 ft 390 kts 274°
2026-05-07 19:09 43.60917 76.13462 20162 ft 392 kts 274°
2026-05-07 19:10 43.61090 76.09701 20654 ft 394 kts 274°
2026-05-07 19:10 43.61266 76.05921 21119 ft 396 kts 274°
2026-05-07 19:10 43.61442 76.02109 21560 ft 399 kts 274°
2026-05-07 19:10 43.61619 75.98276 21996 ft 401 kts 274°
2026-05-07 19:11 43.61794 75.94424 22436 ft 404 kts 274°
2026-05-07 19:11 43.61970 75.90549 22862 ft 406 kts 274°
2026-05-07 19:11 43.62145 75.86647 23286 ft 408 kts 274°
2026-05-07 19:11 43.62320 75.82722 23684 ft 411 kts 274°
2026-05-07 19:12 43.62494 75.78779 24025 ft 413 kts 274°
2026-05-07 19:12 43.62668 75.74809 24303 ft 417 kts 274°
2026-05-07 19:12 43.62843 75.70800 24611 ft 420 kts 274°
2026-05-07 19:12 43.63016 75.66773 24958 ft 421 kts 274°
2026-05-07 19:13 43.63190 75.62731 25304 ft 423 kts 274°
2026-05-07 19:13 43.63363 75.58666 25626 ft 425 kts 274°
2026-05-07 19:13 43.63535 75.54584 25940 ft 427 kts 274°
2026-05-07 19:13 43.63853 75.50502 26246 ft 429 kts 281°
2026-05-07 19:14 43.64492 75.46474 26553 ft 430 kts 284°
2026-05-07 19:14 43.65223 75.42460 26854 ft 432 kts 285°
2026-05-07 19:14 43.65974 75.38436 27098 ft 435 kts 285°
2026-05-07 19:14 43.66718 75.34381 27377 ft 437 kts 284°
2026-05-07 19:15 43.67446 75.30300 27759 ft 436 kts 284°
2026-05-07 19:15 43.68154 75.26231 28098 ft 437 kts 284°
2026-05-07 19:15 43.68855 75.22129 28334 ft 440 kts 284°
2026-05-07 19:15 43.69553 75.17998 28578 ft 442 kts 284°
2026-05-07 19:16 43.70250 75.13850 28838 ft 444 kts 284°
2026-05-07 19:16 43.70946 75.09685 29128 ft 445 kts 284°
2026-05-07 19:16 43.71641 75.05520 29514 ft 444 kts 284°
2026-05-07 19:16 43.72329 75.01382 30023 ft 440 kts 284°
2026-05-07 19:17 43.73013 74.97268 30395 ft 438 kts 284°
2026-05-07 19:17 43.73694 74.93165 30637 ft 439 kts 284°
2026-05-07 19:17 43.74375 74.89052 30866 ft 440 kts 284°
2026-05-07 19:17 43.75057 74.84929 31165 ft 439 kts 284°
2026-05-07 19:18 43.75734 74.80818 31481 ft 437 kts 284°
2026-05-07 19:18 43.76408 74.76721 31788 ft 437 kts 284°
2026-05-07 19:18 43.77080 74.72620 32046 ft 437 kts 284°
2026-05-07 19:18 43.77751 74.68526 32318 ft 436 kts 284°
2026-05-07 19:19 43.78417 74.64444 32646 ft 434 kts 284°
2026-05-07 19:19 43.79080 74.60371 32925 ft 434 kts 284°
2026-05-07 19:19 43.79742 74.56295 33144 ft 434 kts 284°
2026-05-07 19:19 43.80396 74.52264 33375 ft 434 kts 284°
2026-05-07 19:20 43.81063 74.48136 33630 ft 434 kts 284°
2026-05-07 19:20 43.81711 74.44120 33894 ft 433 kts 284°
2026-05-07 19:20 43.82366 74.40052 34118 ft 433 kts 284°
2026-05-07 19:20 43.83020 74.35980 34348 ft 432 kts 283°
2026-05-07 19:21 43.83665 74.31938 34705 ft 427 kts 283°
2026-05-07 19:21 43.84136 74.27904 35046 ft 423 kts 278°
2026-05-07 19:21 43.84439 74.23853 35257 ft 423 kts 276°
2026-05-07 19:21 43.84693 74.19792 35402 ft 424 kts 276°
2026-05-07 19:22 43.84937 74.15719 35556 ft 424 kts 276°
2026-05-07 19:22 43.85184 74.11648 35760 ft 423 kts 276°
2026-05-07 19:22 43.85439 74.07591 35981 ft 422 kts 276°
2026-05-07 19:22 43.85701 74.03538 35971 ft 425 kts 276°
2026-05-07 19:23 43.86239 73.95398 35996 ft 422 kts 276°
2026-05-07 19:23 43.86772 73.87369 35967 ft 415 kts 276°
2026-05-07 19:24 43.87294 73.79457 35967 ft 409 kts 276°
2026-05-07 19:24 43.87807 73.71580 35980 ft 413 kts 276°
2026-05-07 19:25 43.88321 73.63606 35984 ft 418 kts 276°
2026-05-07 19:25 43.88835 73.55536 35960 ft 422 kts 275°
2026-05-07 19:26 43.89346 73.47418 35971 ft 424 kts 275°
2026-05-07 19:26 43.89853 73.39261 35960 ft 425 kts 275°
2026-05-07 19:27 43.90354 73.31110 35959 ft 424 kts 275°
2026-05-07 19:27 43.90848 73.22981 35953 ft 422 kts 275°
2026-05-07 19:28 43.91334 73.14892 35953 ft 420 kts 275°
2026-05-07 19:28 43.91811 73.06846 35956 ft 417 kts 275°
2026-05-07 19:29 43.92274 72.98948 35957 ft 416 kts 275°
2026-05-07 19:29 43.92737 72.90972 35962 ft 414 kts 275°
2026-05-07 19:30 43.93192 72.83010 35960 ft 414 kts 275°
2026-05-07 19:30 43.93645 72.75001 35960 ft 414 kts 275°
2026-05-07 19:31 43.94087 72.67086 35958 ft 415 kts 275°
2026-05-07 19:31 43.94528 72.59096 35958 ft 416 kts 274°
2026-05-07 19:32 43.94964 72.51082 35961 ft 417 kts 274°
2026-05-07 19:32 43.95396 72.43036 35955 ft 419 kts 274°
2026-05-07 19:33 43.95824 72.34961 35958 ft 420 kts 274°
2026-05-07 19:33 43.96247 72.26867 35956 ft 421 kts 274°
2026-05-07 19:34 43.96666 72.18750 35956 ft 421 kts 274°
2026-05-07 19:34 43.97078 72.10639 35964 ft 421 kts 274°
2026-05-07 19:35 43.97485 72.02532 35948 ft 421 kts 274°
2026-05-07 19:35 43.97886 71.94445 35948 ft 419 kts 274°
2026-05-07 19:36 43.98356 71.86399 35946 ft 418 kts 278°
2026-05-07 19:36 43.99453 71.78545 35948 ft 416 kts 281°
2026-05-07 19:37 44.00441 71.72015 35950 ft 415 kts 281°
2026-05-07 19:37 44.01595 71.64162 35953 ft 414 kts 280°
2026-05-07 19:38 44.02712 71.56321 35951 ft 414 kts 280°
2026-05-07 19:38 44.03814 71.48480 35955 ft 413 kts 280°
2026-05-07 19:39 44.04909 71.40633 35959 ft 413 kts 279°
2026-05-07 19:39 44.06000 71.32784 35956 ft 414 kts 279°
2026-05-07 19:40 44.07089 71.24916 35954 ft 414 kts 279°
2026-05-07 19:40 44.08172 71.17044 35954 ft 415 kts 279°
2026-05-07 19:41 44.09251 71.09159 35959 ft 415 kts 279°
2026-05-07 19:41 44.10327 71.01260 35954 ft 416 kts 279°
2026-05-07 19:42 44.11399 70.93352 35955 ft 416 kts 279°
2026-05-07 19:42 44.12461 70.85497 35957 ft 416 kts 279°
2026-05-07 19:43 44.13525 70.77584 35968 ft 416 kts 279°
2026-05-07 19:43 44.14585 70.69663 35954 ft 416 kts 279°
2026-05-07 19:44 44.15638 70.61744 35954 ft 416 kts 279°
2026-05-07 19:44 44.16685 70.53831 35953 ft 415 kts 279°
2026-05-07 19:45 44.17725 70.45928 35955 ft 415 kts 278°
2026-05-07 19:45 44.18760 70.38027 35956 ft 414 kts 278°
2026-05-07 19:46 44.19796 70.30129 35952 ft 414 kts 278°
2026-05-07 19:46 44.20826 70.22256 35950 ft 413 kts 278°
2026-05-07 19:47 44.21851 70.14377 35966 ft 413 kts 278°
2026-05-07 19:47 44.22868 70.06506 35954 ft 412 kts 278°
2026-05-07 19:48 44.23878 69.98649 35952 ft 411 kts 278°
2026-05-07 19:48 44.24879 69.90813 35948 ft 410 kts 278°
2026-05-07 19:49 44.25874 69.82988 35945 ft 409 kts 278°
2026-05-07 19:49 44.26862 69.75163 35945 ft 409 kts 278°
2026-05-07 19:50 44.27843 69.67353 35945 ft 409 kts 277°
2026-05-07 19:50 44.28818 69.59541 35944 ft 409 kts 277°
2026-05-07 19:51 44.29788 69.51726 35946 ft 409 kts 277°
2026-05-07 19:51 44.30755 69.43896 35950 ft 409 kts 277°
2026-05-07 19:52 44.31715 69.36073 35939 ft 409 kts 277°
2026-05-07 19:52 44.32669 69.28250 35941 ft 409 kts 277°
2026-05-07 19:53 44.33612 69.20469 35936 ft 409 kts 277°
2026-05-07 19:53 44.34555 69.12647 35941 ft 408 kts 277°
2026-05-07 19:54 44.35493 69.04818 35933 ft 408 kts 277°
2026-05-07 19:54 44.36427 68.96992 35937 ft 408 kts 276°
2026-05-07 19:55 44.37353 68.89161 35919 ft 408 kts 276°
2026-05-07 19:55 44.38265 68.81333 35929 ft 408 kts 276°
2026-05-07 19:56 44.39171 68.73509 35923 ft 408 kts 276°
2026-05-07 19:56 44.40073 68.65674 35924 ft 407 kts 276°
2026-05-07 19:57 44.40966 68.57865 35923 ft 407 kts 276°
2026-05-07 19:57 44.41854 68.50066 35921 ft 406 kts 276°
2026-05-07 19:58 44.42735 68.42273 35923 ft 406 kts 276°
2026-05-07 19:58 44.43611 68.34475 35924 ft 405 kts 276°
2026-05-07 19:59 44.44481 68.26682 35918 ft 405 kts 276°
2026-05-07 19:59 44.45341 68.18894 35931 ft 405 kts 275°
2026-05-07 20:00 44.46166 68.11076 35924 ft 406 kts 275°
2026-05-07 20:00 44.46980 68.03251 35926 ft 406 kts 275°
2026-05-07 20:01 44.47793 67.95418 35928 ft 407 kts 275°
2026-05-07 20:01 44.48604 67.87562 35927 ft 408 kts 275°
2026-05-07 20:02 44.49412 67.79689 35936 ft 409 kts 275°
2026-05-07 20:02 44.50217 67.71797 35935 ft 410 kts 275°
2026-05-07 20:03 44.51017 67.63893 35943 ft 410 kts 275°
2026-05-07 20:03 44.51814 67.55972 35960 ft 411 kts 274°
2026-05-07 20:04 44.52620 67.48041 35947 ft 411 kts 275°
2026-05-07 20:04 44.53442 67.40102 35931 ft 411 kts 275°
2026-05-07 20:05 44.54258 67.32182 35940 ft 411 kts 275°
2026-05-07 20:05 44.55065 67.24251 35942 ft 410 kts 275°
2026-05-07 20:06 44.55866 67.16327 35927 ft 410 kts 274°
2026-05-07 20:06 44.56659 67.08411 35936 ft 410 kts 274°
2026-05-07 20:07 44.57447 67.00498 35933 ft 410 kts 274°
2026-05-07 20:07 44.58230 66.92578 35931 ft 410 kts 274°
2026-05-07 20:08 44.59002 66.84710 35939 ft 410 kts 274°
2026-05-07 20:08 44.59773 66.76795 35937 ft 409 kts 274°
2026-05-07 20:09 44.60538 66.68887 35929 ft 409 kts 274°
2026-05-07 20:10 44.61662 66.57034 35936 ft 408 kts 273°
2026-05-07 20:10 44.62318 66.49139 35926 ft 407 kts 273°
2026-05-07 20:11 44.62956 66.41242 35935 ft 407 kts 273°
2026-05-07 20:11 44.63596 66.33344 35936 ft 407 kts 273°
2026-05-07 20:12 44.64235 66.25444 35941 ft 407 kts 273°
2026-05-07 20:12 44.64870 66.17546 35936 ft 407 kts 273°
2026-05-07 20:13 44.65501 66.09638 35938 ft 407 kts 273°
2026-05-07 20:13 44.66126 66.01723 35936 ft 408 kts 273°
2026-05-07 20:14 44.66746 65.93808 35936 ft 408 kts 272°
2026-05-07 20:14 44.67361 65.85881 35956 ft 408 kts 272°
2026-05-07 20:15 44.67971 65.77956 35942 ft 408 kts 272°
2026-05-07 20:15 44.68572 65.70071 35944 ft 407 kts 272°
2026-05-07 20:16 44.69169 65.62165 35913 ft 407 kts 272°
2026-05-07 20:16 44.70438 65.54445 35934 ft 413 kts 286°
2026-05-07 20:17 44.73034 65.47179 35913 ft 417 kts 293°
2026-05-07 20:17 44.75804 65.40019 35919 ft 416 kts 293°
2026-05-07 20:18 44.78536 65.32866 35921 ft 415 kts 292°
2026-05-07 20:18 44.81240 65.25716 35931 ft 414 kts 292°
2026-05-07 20:19 44.83932 65.18566 35937 ft 413 kts 292°
2026-05-07 20:19 44.86622 65.11405 35948 ft 413 kts 292°
2026-05-07 20:20 44.89311 65.04229 35943 ft 414 kts 292°
2026-05-07 20:20 44.91999 64.97039 35950 ft 415 kts 292°
2026-05-07 20:21 44.94517 64.89733 35948 ft 414 kts 289°
2026-05-07 20:21 44.96954 64.82371 35949 ft 416 kts 289°
2026-05-07 20:22 44.99428 64.74974 35952 ft 418 kts 289°
2026-05-07 20:22 45.01503 64.68793 35950 ft 420 kts 289°
2026-05-07 20:23 45.04003 64.61315 35952 ft 422 kts 289°
2026-05-07 20:23 45.06512 64.53785 35952 ft 424 kts 289°
2026-05-07 20:24 45.09027 64.46214 35964 ft 427 kts 288°
2026-05-07 20:24 45.11552 64.38593 35956 ft 428 kts 288°
2026-05-07 20:25 45.14075 64.30959 35941 ft 428 kts 288°
2026-05-07 20:25 45.16594 64.23315 35944 ft 428 kts 288°
2026-05-07 20:26 45.19099 64.15692 35947 ft 427 kts 288°
2026-05-07 20:26 45.21595 64.08072 35950 ft 426 kts 288°
2026-05-07 20:27 45.24078 64.00468 35942 ft 424 kts 288°
2026-05-07 20:27 45.26547 63.92885 35941 ft 422 kts 288°
2026-05-07 20:28 45.29002 63.85324 35947 ft 421 kts 288°
2026-05-07 20:28 45.31442 63.77787 35942 ft 419 kts 288°
2026-05-07 20:29 45.33875 63.70246 35943 ft 419 kts 288°
2026-05-07 20:29 45.36302 63.62705 35940 ft 419 kts 288°
2026-05-07 20:30 45.38724 63.55158 35950 ft 420 kts 288°
2026-05-07 20:30 45.41140 63.47606 35961 ft 420 kts 288°
2026-05-07 20:31 45.43561 63.40015 35944 ft 421 kts 288°
2026-05-07 20:31 45.45965 63.32459 35955 ft 423 kts 288°
2026-05-07 20:32 45.48389 63.24817 35945 ft 424 kts 288°
2026-05-07 20:32 45.50811 63.17158 35940 ft 424 kts 288°
2026-05-07 20:33 45.53231 63.09483 35944 ft 424 kts 288°
2026-05-07 20:33 45.55649 63.01793 35937 ft 425 kts 288°
2026-05-07 20:34 45.58058 62.94106 35951 ft 425 kts 288°
2026-05-07 20:34 45.60468 62.86394 35947 ft 425 kts 288°
2026-05-07 20:35 45.62871 62.78682 35940 ft 425 kts 288°
2026-05-07 20:35 45.65265 62.70976 35939 ft 424 kts 288°
2026-05-07 20:36 45.67648 62.63281 35941 ft 422 kts 288°
2026-05-07 20:36 45.70015 62.55614 35959 ft 421 kts 288°
2026-05-07 20:37 45.72372 62.47955 35946 ft 420 kts 288°
2026-05-07 20:37 45.74722 62.40297 35942 ft 419 kts 288°
2026-05-07 20:38 45.77061 62.32653 35940 ft 418 kts 288°
2026-05-07 20:38 45.79387 62.25025 35941 ft 418 kts 287°
2026-05-07 20:39 45.81708 62.17395 35957 ft 417 kts 287°
2026-05-07 20:39 45.83757 62.09675 35938 ft 410 kts 279°
2026-05-07 20:40 45.85120 62.01742 35943 ft 409 kts 278°
2026-05-07 20:40 45.86460 61.93810 35942 ft 409 kts 278°
2026-05-07 20:41 45.87827 61.85884 35941 ft 409 kts 278°
2026-05-07 20:41 45.89204 61.77956 35943 ft 410 kts 278°
2026-05-07 20:42 45.90580 61.70014 35966 ft 410 kts 278°
2026-05-07 20:42 45.91951 61.62059 35963 ft 411 kts 278°
2026-05-07 20:43 45.93321 61.54074 35948 ft 412 kts 278°
2026-05-07 20:43 45.94687 61.46087 35944 ft 412 kts 278°
2026-05-07 20:44 45.96046 61.38081 35944 ft 412 kts 278°
2026-05-07 20:44 45.97385 61.30123 35945 ft 412 kts 278°
2026-05-07 20:45 45.98725 61.22113 35946 ft 412 kts 278°
2026-05-07 20:45 46.00061 61.14089 35955 ft 413 kts 278°
2026-05-07 20:46 46.01393 61.06062 35957 ft 413 kts 278°
2026-05-07 20:46 46.02719 60.98032 35949 ft 413 kts 278°
2026-05-07 20:47 46.04040 60.89997 35943 ft 412 kts 278°
2026-05-07 20:47 46.05353 60.81970 35945 ft 412 kts 278°
2026-05-07 20:48 46.06660 60.73943 35951 ft 411 kts 277°
2026-05-07 20:48 46.07960 60.65920 35945 ft 412 kts 277°
2026-05-07 20:49 46.09255 60.57890 35946 ft 412 kts 277°
2026-05-07 20:49 46.10544 60.49851 35941 ft 412 kts 277°
2026-05-07 20:50 46.11829 60.41810 35947 ft 412 kts 277°
2026-05-07 20:50 46.13107 60.33767 35950 ft 412 kts 277°
2026-05-07 20:51 46.14381 60.25707 35947 ft 412 kts 277°
2026-05-07 20:51 46.15650 60.17647 35979 ft 412 kts 277°
2026-05-07 20:52 46.16905 60.09628 35957 ft 413 kts 277°
2026-05-07 20:52 46.18167 60.01529 35949 ft 414 kts 277°
2026-05-07 20:53 46.19424 59.93420 35952 ft 414 kts 277°
2026-05-07 20:53 46.20676 59.85306 35950 ft 415 kts 277°
2026-05-07 20:54 46.21926 59.77170 35949 ft 415 kts 277°
2026-05-07 20:54 46.23170 59.69031 35949 ft 415 kts 277°
2026-05-07 20:55 46.24413 59.60878 35954 ft 416 kts 277°
2026-05-07 20:55 46.25651 59.52721 35955 ft 416 kts 277°
2026-05-07 20:56 46.26886 59.44550 35947 ft 416 kts 277°
2026-05-07 20:56 46.28113 59.36380 35954 ft 416 kts 277°
2026-05-07 20:57 46.29336 59.28200 35947 ft 416 kts 277°
2026-05-07 20:57 46.30551 59.20026 35949 ft 416 kts 277°
2026-05-07 20:58 46.31759 59.11858 35964 ft 416 kts 277°
2026-05-07 20:58 46.32962 59.03676 35952 ft 416 kts 277°
2026-05-07 20:59 46.34159 58.95495 35954 ft 415 kts 277°
2026-05-07 20:59 46.35350 58.87317 35946 ft 415 kts 277°
2026-05-07 21:00 46.36536 58.79133 35955 ft 415 kts 277°
2026-05-07 21:00 46.37714 58.70942 35951 ft 415 kts 277°
2026-05-07 21:01 46.38883 58.62747 35951 ft 415 kts 277°
2026-05-07 21:01 46.40048 58.54538 35954 ft 416 kts 277°
2026-05-07 21:02 46.41209 58.46320 35946 ft 417 kts 277°
2026-05-07 21:02 46.42366 58.38086 35941 ft 417 kts 277°
2026-05-07 21:03 46.43516 58.29854 35940 ft 417 kts 277°
2026-05-07 21:03 46.44663 58.21597 35944 ft 417 kts 277°
2026-05-07 21:04 46.45804 58.13338 35937 ft 417 kts 277°
2026-05-07 21:04 46.46937 58.05087 35947 ft 418 kts 277°
2026-05-07 21:05 46.48059 57.96875 35936 ft 418 kts 277°
2026-05-07 21:05 46.49183 57.88600 35934 ft 418 kts 277°
2026-05-07 21:06 46.50300 57.80331 35934 ft 418 kts 276°
2026-05-07 21:06 46.51412 57.72051 35932 ft 418 kts 276°
2026-05-07 21:07 46.52517 57.63776 35927 ft 418 kts 276°
2026-05-07 21:07 46.53616 57.55489 35940 ft 418 kts 277°
2026-05-07 21:08 46.54711 57.47191 35933 ft 418 kts 276°
2026-05-07 21:08 46.55800 57.38889 35926 ft 418 kts 276°
2026-05-07 21:09 46.56701 57.31986 35927 ft 419 kts 276°
2026-05-07 21:09 46.57781 57.23660 35922 ft 419 kts 276°
2026-05-07 21:10 46.58854 57.15343 35917 ft 419 kts 276°
2026-05-07 21:10 46.59921 57.07019 35924 ft 419 kts 276°
2026-05-07 21:11 46.60984 56.98678 35914 ft 419 kts 276°
2026-05-07 21:11 46.62565 56.86174 35913 ft 419 kts 276°
2026-05-07 21:12 46.63612 56.77836 35913 ft 419 kts 276°
2026-05-07 21:12 46.64653 56.69493 35905 ft 419 kts 276°
2026-05-07 21:13 46.65682 56.61153 35904 ft 419 kts 276°
2026-05-07 21:13 46.66700 56.52815 35908 ft 418 kts 276°
2026-05-07 21:14 46.67714 56.44469 35907 ft 419 kts 276°
2026-05-07 21:14 46.68723 56.36105 35910 ft 419 kts 276°
2026-05-07 21:15 46.69721 56.27788 35896 ft 420 kts 276°
2026-05-07 21:15 46.70720 56.19410 35896 ft 420 kts 276°
2026-05-07 21:16 46.71720 56.10969 35898 ft 420 kts 276°
2026-05-07 21:16 46.72708 56.02578 35887 ft 420 kts 276°
2026-05-07 21:17 46.73683 55.94231 35905 ft 421 kts 276°
2026-05-07 21:17 46.74667 55.85764 35895 ft 421 kts 276°
2026-05-07 21:18 46.75633 55.77388 35885 ft 421 kts 276°
2026-05-07 21:18 46.76599 55.68954 35884 ft 422 kts 276°
2026-05-07 21:19 46.77560 55.60517 35881 ft 422 kts 276°
2026-05-07 21:19 46.78514 55.52071 35882 ft 422 kts 276°
2026-05-07 21:20 46.79463 55.43618 35881 ft 422 kts 276°
2026-05-07 21:20 46.80407 55.35160 35886 ft 423 kts 276°
2026-05-07 21:21 46.81347 55.26679 35883 ft 423 kts 276°
2026-05-07 21:21 46.82290 55.18229 35860 ft 415 kts 276°
2026-05-07 21:22 46.83199 55.10074 35831 ft 398 kts 276°
2026-05-07 21:22 46.83639 55.06097 35359 ft 396 kts 276°
2026-05-07 21:22 46.84074 55.02126 34905 ft 396 kts 276°
2026-05-07 21:23 46.84507 54.98167 34469 ft 394 kts 276°
2026-05-07 21:23 46.84937 54.94226 34127 ft 391 kts 276°
2026-05-07 21:23 46.85353 54.90407 33808 ft 387 kts 276°
2026-05-07 21:23 46.85781 54.86459 33391 ft 384 kts 276°
2026-05-07 21:24 46.86198 54.82596 32831 ft 386 kts 276°
2026-05-07 21:24 46.86614 54.78735 32389 ft 384 kts 276°
2026-05-07 21:24 46.87027 54.74892 32021 ft 380 kts 276°
2026-05-07 21:24 46.87434 54.71093 31660 ft 377 kts 276°
2026-05-07 21:25 46.87838 54.67318 31273 ft 375 kts 276°
2026-05-07 21:25 46.88234 54.63604 30892 ft 373 kts 276°
2026-05-07 21:25 46.88630 54.59865 30516 ft 371 kts 276°
2026-05-07 21:25 46.89023 54.56142 30147 ft 370 kts 276°
2026-05-07 21:26 46.89410 54.52441 29769 ft 367 kts 276°
2026-05-07 21:26 46.89791 54.48769 29372 ft 364 kts 276°
2026-05-07 21:26 46.90168 54.45117 28957 ft 361 kts 276°
2026-05-07 21:26 46.90542 54.41493 28540 ft 359 kts 276°
2026-05-07 21:27 46.90912 54.37889 28137 ft 357 kts 276°
2026-05-07 21:27 46.91277 54.34321 27741 ft 354 kts 276°
2026-05-07 21:27 46.91640 54.30774 27446 ft 349 kts 276°
2026-05-07 21:27 46.91996 54.27285 27102 ft 346 kts 276°
2026-05-07 21:28 46.92348 54.23814 26697 ft 345 kts 276°
2026-05-07 21:28 46.92698 54.20354 26294 ft 343 kts 276°
2026-05-07 21:28 46.93045 54.16908 25931 ft 341 kts 276°
2026-05-07 21:28 46.93389 54.13486 25578 ft 339 kts 276°
2026-05-07 21:29 46.93731 54.10085 25206 ft 337 kts 276°
2026-05-07 21:29 46.94069 54.06704 24850 ft 335 kts 276°
2026-05-07 21:29 46.94404 54.03336 24499 ft 333 kts 276°
2026-05-07 21:29 46.94737 53.99990 24158 ft 332 kts 276°
2026-05-07 21:30 46.95066 53.96667 23821 ft 330 kts 276°
2026-05-07 21:30 46.95395 53.93344 23485 ft 328 kts 276°
2026-05-07 21:30 46.95720 53.90048 23098 ft 327 kts 276°
2026-05-07 21:30 46.96042 53.86766 22687 ft 325 kts 276°
2026-05-07 21:31 46.96363 53.83494 22328 ft 323 kts 276°
2026-05-07 21:31 46.96678 53.80272 22077 ft 318 kts 276°
2026-05-07 21:31 46.96990 53.77084 21824 ft 315 kts 276°
2026-05-07 21:31 46.97297 53.73926 21568 ft 313 kts 276°
2026-05-07 21:32 46.97602 53.70786 21307 ft 310 kts 276°
2026-05-07 21:32 46.97905 53.67659 21069 ft 309 kts 276°
2026-05-07 21:32 46.98204 53.64567 20785 ft 305 kts 276°
2026-05-07 21:32 46.98499 53.61498 20473 ft 303 kts 276°
2026-05-07 21:33 46.98791 53.58451 20165 ft 301 kts 276°
2026-05-07 21:33 46.99080 53.55432 19871 ft 299 kts 276°
2026-05-07 21:33 46.99364 53.52466 19587 ft 297 kts 276°
2026-05-07 21:33 46.99652 53.49441 19281 ft 295 kts 277°
2026-05-07 21:34 46.99933 53.46472 18978 ft 293 kts 276°
2026-05-07 21:34 47.00209 53.43557 18689 ft 292 kts 276°
2026-05-07 21:34 47.00486 53.40622 18388 ft 291 kts 276°
2026-05-07 21:34 47.00766 53.37653 18082 ft 290 kts 277°
2026-05-07 21:35 47.01036 53.34776 17751 ft 288 kts 276°
2026-05-07 21:35 47.01307 53.31877 17438 ft 286 kts 276°
2026-05-07 21:35 47.01576 53.28999 17148 ft 284 kts 276°
2026-05-07 21:35 47.01842 53.26146 16849 ft 282 kts 276°
2026-05-07 21:36 47.02105 53.23313 16564 ft 280 kts 277°
2026-05-07 21:36 47.02366 53.20499 16272 ft 278 kts 277°
2026-05-07 21:36 47.02624 53.17705 15982 ft 276 kts 277°
2026-05-07 21:36 47.02880 53.14924 15703 ft 274 kts 277°
2026-05-07 21:37 47.03133 53.12163 15421 ft 273 kts 277°
2026-05-07 21:37 47.03384 53.09416 15141 ft 271 kts 277°
2026-05-07 21:37 47.03634 53.06687 14866 ft 269 kts 277°
2026-05-07 21:37 47.03881 53.03973 14576 ft 268 kts 277°
2026-05-07 21:38 47.04126 53.01270 14299 ft 267 kts 277°
2026-05-07 21:38 47.04370 52.98580 14033 ft 266 kts 277°
2026-05-07 21:38 47.04614 52.95886 13765 ft 270 kts 277°
2026-05-07 21:38 47.04862 52.93138 13469 ft 275 kts 277°
2026-05-07 21:39 47.05114 52.90336 13158 ft 280 kts 277°
2026-05-07 21:39 47.05367 52.87506 12835 ft 280 kts 277°
2026-05-07 21:39 47.05617 52.84685 12533 ft 278 kts 276°
2026-05-07 21:39 47.05788 52.81867 12213 ft 277 kts 274°
2026-05-07 21:40 47.05915 52.79061 11907 ft 275 kts 273°
2026-05-07 21:40 47.06032 52.76304 11615 ft 273 kts 273°
2026-05-07 21:40 47.06153 52.73497 11322 ft 272 kts 273°
2026-05-07 21:40 47.06274 52.70739 11036 ft 270 kts 273°
2026-05-07 21:41 47.06396 52.67999 10756 ft 269 kts 274°
2026-05-07 21:41 47.06518 52.65272 10464 ft 268 kts 274°
2026-05-07 21:41 47.06640 52.62548 10183 ft 267 kts 274°
2026-05-07 21:41 47.06761 52.59871 10061 ft 259 kts 274°
2026-05-07 21:42 47.06879 52.57241 9807 ft 258 kts 274°
2026-05-07 21:42 47.06996 52.54618 9530 ft 257 kts 274°
2026-05-07 21:42 47.07113 52.52009 9241 ft 256 kts 274°
2026-05-07 21:42 47.07229 52.49406 8955 ft 255 kts 275°
2026-05-07 21:43 47.07343 52.46815 8691 ft 253 kts 275°
2026-05-07 21:43 47.07457 52.44250 8420 ft 251 kts 275°
2026-05-07 21:43 47.07568 52.41731 8168 ft 250 kts 274°
2026-05-07 21:43 47.07679 52.39168 7906 ft 248 kts 274°
2026-05-07 21:44 47.07788 52.36649 7648 ft 247 kts 274°
2026-05-07 21:44 47.07852 52.34174 7385 ft 246 kts 265°
2026-05-07 21:44 47.07305 52.31803 7105 ft 248 kts 245°
2026-05-07 21:44 47.06520 52.29554 6804 ft 248 kts 245°
2026-05-07 21:45 47.05741 52.27302 6552 ft 247 kts 245°
2026-05-07 21:45 47.04965 52.25054 6289 ft 247 kts 245°
2026-05-07 21:45 47.04192 52.22809 6013 ft 246 kts 245°
2026-05-07 21:45 47.03423 52.20571 5741 ft 245 kts 245°
2026-05-07 21:46 47.02657 52.18346 5478 ft 244 kts 245°
2026-05-07 21:46 47.01894 52.16132 5223 ft 243 kts 245°
2026-05-07 21:46 47.01133 52.13926 4961 ft 242 kts 245°
2026-05-07 21:46 47.00422 52.11704 4700 ft 239 kts 256°
2026-05-07 21:47 47.00397 52.09342 4454 ft 233 kts 288°
2026-05-07 21:47 47.01183 52.07320 4221 ft 229 kts 313°
2026-05-07 21:47 47.02420 52.05866 3901 ft 229 kts 319°
2026-05-07 21:47 47.03178 52.03914 3667 ft 221 kts 276°
2026-05-07 21:48 47.02771 52.01848 3543 ft 213 kts 231°
2026-05-07 21:48 47.01542 52.00784 3512 ft 201 kts 203°
2026-05-07 21:48 47.00342 51.99899 3424 ft 187 kts 214°
2026-05-07 21:48 46.99221 51.98989 3362 ft 183 kts 212°
2026-05-07 21:49 46.98085 51.98091 3213 ft 188 kts 215°
2026-05-07 21:49 46.97257 51.96712 3023 ft 178 kts 259°
2026-05-07 21:49 46.97454 51.95065 2882 ft 164 kts 311°
2026-05-07 21:49 46.98334 51.94137 2771 ft 152 kts 324°
2026-05-07 21:50 46.99168 51.93285 2578 ft 146 kts 324°
2026-05-07 21:50 47.00019 51.92455 2420 ft 147 kts 326°
2026-05-07 21:50 47.00894 51.91660 2247 ft 149 kts 328°
2026-05-07 21:50 47.01791 51.90889 2034 ft 148 kts 328°
2026-05-07 21:51 47.02676 51.90133 1830 ft 148 kts 329°
2026-05-07 21:51 47.03558 51.89381 1633 ft 146 kts 329°
2026-05-07 21:51 47.04435 51.88635 1436 ft 146 kts 329°
2026-05-07 21:51 47.05310 51.87888 1238 ft 146 kts 329°
2026-05-07 21:52 47.06183 51.87143 1041 ft 145 kts 329°
2026-05-07 21:52 47.07056 51.86399 845 ft 146 kts 329°
2026-05-07 21:52 47.07947 51.85639 659 ft 150 kts 329°
2026-05-07 21:52 47.08849 51.84870 464 ft 149 kts 328°
2026-05-07 21:53 47.09735 51.84114 273 ft 147 kts 328°
2026-05-07 21:53 47.10619 51.83360 92 ft 148 kts 329°
2026-05-07 21:53 47.11514 51.82598 -67 ft 143 kts 330°
2026-05-07 21:53 47.12299 51.81935 -85 ft 101 kts 330°
2026-05-07 21:54 47.12642 51.81644 -81 ft 49 kts 329°
2026-05-07 21:54 47.12808 51.81502 -82 ft 0 kts 329°